Regional Weather Roundup
Issued by NWS Goodland, KS

Home | Current Version | Previous Version | Text Only | Print | Product List | Glossary Off
Versions: 1 2 3 4 5 6 7 8 9 10 11 12 13 14 15 16 17 18 19 20 21 22 23 24 25 26 27 28 29 30 31 32 33 34 35 36 37 38 39 40 41 42 43 44 45 46 47 48 49 50

000
ASUS43 KGLD 012108
RWRGLD

GOODLAND FORECAST AREA HOURLY WEATHER ROUNDUP
NATIONAL WEATHER SERVICE GOODLAND KS
200 PM MST SUN MAR 01 2015

...OFFICIAL OBSERVATIONS...

CITY           SKY/WX    TMP DP  RH WIND       PRES   REMARKS
GOODLAND KS    SUNNY     32  17  54 NE12      30.26F
HILL CITY KS   PTSUNNY   34  20  56 VRB5      30.34S
IMPERIAL NEB     N/A     37  11  34 N10       30.27F
MCCOOK NEB     SUNNY     40  11  30 NE7       30.29F
AKRON CO       MOSUNNY   31  15  52 N7        30.22F
BURLINGTON CO  MOSUNNY   31  18  58 NE12      30.24S
LIMON CO       PTSUNNY   24  15  68 N8        30.20F
$$

...UNOFFICIAL OBSERVATIONS...

CITY           SKY/WX    TMP DP  RH WIND       PRES   REMARKS
COLBY KS       SUNNY     36  21  55 N9        30.29S
GOVE KS          N/A     32  32 100 MISG        N/A
LENORA KS        N/A     35  32  89 S7          N/A
NORTON KS      SUNNY     37   9  30 N9        30.30F
SHARON SPRINGS   N/A     29  22  74 CALM        N/A
KIT CARSON CO    N/A     29  21  72 MISG        N/A
YUMA CO          N/A     34  14  43 CALM        N/A
$$


USA.gov is the U.S. government's official web portal to all federal, state and local government web resources and services.